Location: Unspecified
(0.0000°N, 0.0000°E)
Time: 20:25:00
(UTC+00:00)

Explorer 11/Cluster Stage 4 - Visible Passes

Search period start: 09 October 2024 00:00
Search period end: 19 October 2024 00:00
Orbit: 464 x 1207 km, 28.8° (Epoch: 09 October)

Date Brightness Start Highest point End Pass type
(mag) Time Alt. Az. Time Alt. Az. Time Alt. Az.
09 Oct 9.1 03:20:09 10° ESE 03:20:09 10° ESE 03:20:10 10° ESE visible
09 Oct 7.3 05:01:44 14° WSW 05:04:09 24° SSW 05:07:48 10° SSE visible
10 Oct 7.3 04:43:59 18° SW 04:45:02 20° SSW 04:48:13 10° SSE visible
11 Oct 7.6 04:26:10 17° SSW 04:26:10 17° SSW 04:28:36 10° SSE visible
12 Oct 8.2 04:08:16 12° S 04:08:16 12° S 04:08:58 10° S visible
